DELTA 1 R/B

Satellite information

Favourite Embed

Satellite Type and Status

ROCKET BODYIN ORBIT

Key statistics

Satellite DELTA 1 R/B at a glance.

Uptime

18429

Days in orbit

Revolutions

≈ 14.1

Per day

Orbit

SSO

Sun Synchronous Orbit

Inclination

97.8

Latest

Satellite identification and parameters

Extended collection of information and parameters for DELTA 1 R/B.

Object identification

Identified? True

Debris? False

Object name: DELTA 1 R/B

International designator: 1975-004B

Object number (NORAD): 7616

Object ID (CCSDS): 7616

Country: UNITED STATES OF AMERICA (US)

Current information (Y/N): Y

RCS size: LARGE

Orbital parameters

Period: 102.42 minutes

Inclination: 97.7738 deg

SMA: 7251.303 km

Apoapsis: 1008.725 km

Periapsis: 737.612 km

RAAN: 285.9584 deg

Eccentricy: 0.0186941

Argument of periapsis: 70.6604 deg

Mean anomaly: 291.4676 deg

Mean motion: 14.05978367 rev/day

Mean motion (dot): 0.0000012 rev/day2

B* drag term: 0.000079532 1/REarth

Two-line elements (TLE)

Creation date: July 6, 2025, 6:05 p.m.

Reference frame: TEME

Reference center: EARTH

Epoch: July 6, 2025, 6:14 a.m. UTC

TLE line 0: 0 DELTA 1 R/B

TLE line 1: 1 07616U 75004B 25187.26041145 .00000120 00000-0 79532-4 0 9995

TLE line 2: 2 07616 97.7738 285.9584 0186941 70.6604 291.4676 14.05978367571789

Live tracking on map

Real-time ground track for satellite DELTA 1 R/B.

In-orbit conjunctions

A list of the most updated potential collisions computed for object DELTA 1 R/B.

Target Orbit TCA Probability of collision Miss distance Type
DELTA 1 DEB SSO 2025-05-08 00:47:22 0.0006829788 272.0 (m) DEBRIS
COSMOS 2251 DEB LEO 2025-03-15 01:07:00 0.0001811484 105.0 (m) DEBRIS
CZ-6A DEB LEO 2025-01-21 04:21:35 0.0003209765 699.0 (m) DEBRIS
NOAA 16 DEB SSO 2024-11-13 18:38:42 0.0003489296 282.0 (m) DEBRIS
CZ-4 DEB SSO 2024-10-03 09:20:05 0.0001042384 268.0 (m) DEBRIS

Associated space launch

Earth observation satellite

DELTA 1 R/B was lifted into orbit during the mission ‘Delta 2910 | Landsat 2’, on board a Delta 2910 space rocket.

The launch took place on Jan. 22, 1975, 5:55 p.m. from Space Launch Complex 2W.

For more information about the launch, click the button.

Launch to space Delta 2910 | Landsat 2
Delta 2910 | Landsat 2

Agency: N/A

Status: Launch Successful

Launch date: Jan. 22, 1975, 5:55 p.m. UTC

Rocket: Delta 2910

Launch pad: Space Launch Complex 2W

Location: Vandenberg SFB, CA, USA

...

Latest news about this satellite

There are no fresh news available about this satellite. Check back as we update our databases every day.


Newsletter sign-up

Weekly statistics, charts and insights to help you stay on top of the space industry.